Location: ??????
(36.0418°N, 43.6351°E)
Time: 03:16:38
(UTC+00:00)

Cosmos 1933 - Pass Details

Date: 07 March 2021
Orbit: 547 x 563 km, 82.5° (Epoch: 19 April)

Event Time Altitude Azimuth Distance (km) Brightness Sun altitude
Exits shadow 02:24:57 - 216° (SW) 1,904 5.7 -13.5°
Reaches altitude 10° 02:25:11 10° 217° (SW) 1,819 5.6 -13.4°
Maximum altitude 02:28:47 32° 282° (WNW) 961 4.0 -12.7°
Drops below altitude 10° 02:32:26 10° 346° (NNW) 1,839 5.9 -12.0°
Sets 02:34:48 0° 356° (N) 2,741 6.9 -11.5°
